Weather History for KPBG - May, 2013

Nearest airport to NA, NA.

See history from more local stations
Change the Weather History Date:

Monday, May 27, 2013

  Actual Average Record
Temperature  
Mean Temperature 51 °F 59 °F  
Max Temperature 69 °F 71 °F 88 °F (1978)
Min Temperature 33 °F 48 °F 33 °F (2013)
Degree Days  
Heating Degree Days 14    
Cooling Degree Days 0 1  
Month to date cooling degree days 4 4  
Year to date cooling degree days 4 4  
Growing Degree Days 1 (Base 50)    
Moisture  
Dew Point 36 °F    
Average Humidity 63    
Maximum Humidity 100    
Minimum Humidity 25    
Precipitation  
Precipitation 0.00 in - 1.77 in (1956)
Month to date precipitation 4.86  
Year to date precipitation 8.82  
Sea Level Pressure  
Sea Level Pressure 30.10 in    
Wind  
Wind Speed 5 mph (NNW)    
Max Wind Speed 21 mph    
Max Gust Speed 28 mph    
Visibility 7 miles    
Events      
T = Trace of Precipitation, MM = Missing Value Source: NWS Daily Summary

Daily Weather History Graph

Daily Weather History Graph

Search for Another Location

Airport or City:

Trip Planner

Search our weather history database for the weather conditions in past years. The results will help you decide how hot, cold, wet, or windy it might be!

Date:

Astronomy

May. 27, 2013 Rise Set
Actual Time 5:14 AM EDT 8:27 PM EDT
Civil Twilight 4:39 AM EDT 9:03 PM EDT
Nautical Twilight 3:53 AM EDT 9:49 PM EDT
Astronomical Twilight 2:57 AM EDT 10:46 PM EDT
Moon 11:01 PM EDT (5/27) 7:50 AM EDT (5/27)
Length of Visible Light 16h 24m
Length of Day
15h 13m
Waning Gibbous, 91% of the Moon is Illuminated
May 27
Waning Gibbous
May 31
Last Quarter
Jun 8
New
Jun 16
First Quarter
Jun 23
Full

Hourly Weather History & Observations

Time (EDT) Temp. Dew Point Humidity Pressure Visibility Wind Dir Wind Speed Gust Speed Precip Events Conditions
12:53 AM 37.9 °F 37.0 °F 97% 30.06 in 8.0 mi Calm Calm - N/A   Clear
1:08 AM 37.4 °F 37.4 °F 100% 30.05 in 1.8 mi Calm Calm - N/A   Clear
1:17 AM 37.4 °F 35.6 °F 93% 30.04 in 3.0 mi Calm Calm - N/A   Clear
1:37 AM 37.4 °F 37.4 °F 100% 30.04 in 2.0 mi Calm Calm - N/A   Clear
1:46 AM 37.4 °F 37.4 °F 100% 30.04 in 10.0 mi Calm Calm - N/A   Clear
1:53 AM 37.0 °F 37.0 °F 100% 30.05 in 10.0 mi Calm Calm - N/A   Clear
2:24 AM 35.6 °F 35.6 °F 100% 30.04 in 1.5 mi Calm Calm - N/A   Clear
2:32 AM 35.6 °F 35.6 °F 100% 30.04 in 1.5 mi Calm Calm - N/A   Partly Cloudy
2:38 AM 35.6 °F 35.6 °F 100% 30.04 in 3.0 mi Calm Calm - N/A   Partly Cloudy
2:43 AM 35.6 °F 35.6 °F 100% 30.04 in 1.8 mi Calm Calm - N/A   Partly Cloudy
2:50 AM 35.6 °F 35.6 °F 100% 30.05 in 3.0 mi Calm Calm - N/A   Scattered Clouds
2:51 AM 35.1 °F 34.0 °F 96% 30.06 in 4.0 mi Calm Calm - N/A   Scattered Clouds
3:02 AM 35.6 °F 35.6 °F 100% 30.05 in 1.8 mi Calm Calm - N/A   Scattered Clouds
3:14 AM 35.6 °F 35.6 °F 100% 30.05 in 4.0 mi Calm Calm - N/A   Scattered Clouds
3:53 AM 35.1 °F 34.0 °F 96% 30.07 in 3.0 mi Calm Calm - N/A   Partly Cloudy
4:53 AM 33.1 °F 33.1 °F 100% 30.09 in 7.0 mi Calm Calm - N/A   Partly Cloudy
5:53 AM 33.1 °F 32.0 °F 96% 30.11 in 10.0 mi Calm Calm - N/A   Clear
6:23 AM 35.6 °F 35.6 °F 100% 30.11 in 1.8 mi Calm Calm - N/A   Clear
6:27 AM 35.6 °F 35.6 °F 100% 30.11 in 3.0 mi Calm Calm - N/A   Clear
6:53 AM 39.9 °F 39.0 °F 97% 30.13 in 10.0 mi Calm Calm - N/A   Clear
7:53 AM 50.0 °F 43.0 °F 77% 30.14 in 10.0 mi Calm Calm - N/A   Clear
8:53 AM 52.0 °F 43.0 °F 71% 30.16 in 10.0 mi SE 4.6 mph - N/A   Clear
9:53 AM 53.1 °F 44.1 °F 71% 30.16 in 10.0 mi SE 8.1 mph - N/A   Clear
10:53 AM 60.1 °F 37.9 °F 44% 30.16 in 10.0 mi NNW 13.8 mph 19.6 mph N/A   Clear
11:12 AM 62.6 °F 32.0 °F 32% 30.15 in 10.0 mi NW 11.5 mph 23.0 mph N/A   Clear
11:53 AM 64.0 °F 32.0 °F 30% 30.15 in 10.0 mi NNW 17.3 mph 25.3 mph N/A   Clear
12:53 PM 64.9 °F 32.0 °F 29% 30.13 in 10.0 mi NNW 16.1 mph 24.2 mph N/A   Clear
1:53 PM 66.0 °F 34.0 °F 30% 30.12 in 10.0 mi North 9.2 mph 19.6 mph N/A   Clear
2:53 PM 66.9 °F 33.1 °F 28% 30.11 in 10.0 mi NW 10.4 mph 18.4 mph N/A   Clear
3:53 PM 68.0 °F 33.1 °F 27% 30.11 in 10.0 mi North 9.2 mph 16.1 mph N/A   Clear
4:53 PM 69.1 °F 32.0 °F 25% 30.10 in 10.0 mi NW 9.2 mph 20.7 mph N/A   Clear
5:53 PM 66.9 °F 34.0 °F 30% 30.11 in 10.0 mi NNW 9.2 mph - N/A   Clear
6:53 PM 66.0 °F 34.0 °F 30% 30.12 in 10.0 mi NNW 5.8 mph - N/A   Clear
7:53 PM 59.0 °F 37.9 °F 46% 30.12 in 10.0 mi Calm Calm - N/A   Clear
8:53 PM 53.1 °F 41.0 °F 64% 30.12 in 10.0 mi Calm Calm - N/A   Clear
9:53 PM 51.1 °F 39.9 °F 66% 30.14 in 10.0 mi WSW 4.6 mph - N/A   Clear
10:53 PM 46.0 °F 41.0 °F 83% 30.14 in 10.0 mi Calm Calm - N/A   Clear
11:53 PM 44.1 °F 39.9 °F 85% 30.16 in 10.0 mi Calm Calm - N/A   Clear